This demonstration page uses our WeatherBlox Daily Observations layout. Learn more.

Left ArrowRight Arrow

Hourly Observations for October 22, 2015

Temp ( °F °C ) Dew Point ( °F °C ) Humidity (%) Winds ( mph kmh ) Pressure ( in mb ) Visibility ( mi km ) Precip ( " mm )
12:53 am 00:53 Clear 49 9.4 44 6.7 83 83 Calm 30.23 1024 10 16 0.00 0.00
1:53 am 01:53 Clear 48 8.9 44 6.7 86 86 Calm 30.22 1024 10 16 0.00 0.00
2:53 am 02:53 Clear 47 8.3 44 6.7 90 90 Calm 30.22 1024 10 16 0.00 0.00
3:53 am 03:53 Clear 47 8.3 44 6.7 90 90 Calm 30.22 1023 10 16 0.00 0.00
4:53 am 04:53 Clear 47 8.3 45 7.2 93 93 Calm 30.21 1023 10 16 0.00 0.00
5:53 am 05:53 Clear 48 8.9 46 7.8 93 93 Calm 30.22 1023 10 16 0.00 0.00
6:53 am 06:53 Clear 47 8.3 45 7.2 93 93 Calm 30.23 1024 7 11 0.00 0.00
7:53 am 07:53 Clear 47 8.3 45 7.2 93 93 ENE 3 6 30.25 1024 9 14 0.00 0.00
8:53 am 08:53 Sunny 54 12.2 51 10.6 90 90 Calm 30.26 1025 8 13 0.00 0.00
9:53 am 09:53 Sunny 62 16.7 54 12.2 75 75 Calm 30.26 1025 9 14 0.00 0.00
10:53 am 10:53 Sunny 68 20 54 12.2 61 61 WSW 8 13 30.26 1025 10 16 0.00 0.00
11:53 am 11:53 Sunny 73 22.8 55 12.8 53 53 WSW 6 9 30.26 1025 10 16 0.00 0.00
12:53 pm 12:53 Sunny 76 24.4 56 13.3 50 50 VRB 6 9 30.25 1024 10 16 0.00 0.00
1:53 pm 13:53 Sunny 80 26.7 56 13.3 44 44 SW 6 9 30.22 1023 10 16 0.00 0.00
2:53 pm 14:53 Sunny 81 27.2 56 13.3 42 42 SW 6 9 30.20 1023 10 16 0.00 0.00
3:53 pm 15:53 Mostly Sunny 82 27.8 56 13.3 41 41 VRB 5 7 30.18 1022 10 16 0.00 0.00
4:53 pm 16:53 Mostly Sunny 82 27.8 57 13.9 42 42 VRB 5 7 30.17 1022 10 16 0.00 0.00
5:53 pm 17:53 Mostly Sunny 81 27.2 57 13.9 44 44 SW 3 6 30.17 1022 10 16 0.00 0.00
6:53 pm 18:53 Mostly Cloudy 75 23.9 58 14.4 55 55 Calm 30.19 1022 10 16 0.00 0.00
7:53 pm 19:53 Mostly Cloudy 70 21.1 58 14.4 66 66 Calm 30.20 1023 10 16 0.00 0.00
8:53 pm 20:53 Mostly Clear 71 21.7 56 13.3 59 59 NNE 8 13 30.21 1023 10 16 0.00 0.00
9:53 pm 21:53 Mostly Cloudy 68 20 55 12.8 63 63 NNW 6 9 30.23 1024 10 16 0.00 0.00
10:53 pm 22:53 Clear 62 16.7 54 12.2 75 75 Calm 30.24 1024 10 16 0.00 0.00
11:53 pm 23:53 Clear 57 13.9 53 11.7 87 87 Calm 30.24 1024 10 16 0.00 0.00

Powered by AerisWeather